Regional Weather Roundup
Issued by NWS

Home | Current Version | Previous Version | Graphics & Text | Print | Product List | Glossary On
Versions: 1 2 3 4 5 6 7 8 9 10 11 12 13 14 15 16 17 18 19 20 21 22 23 24 25 26 27 28 29 30 31 32 33 34 35 36 37 38 39 40 41 42 43 44 45 46 47 48 49 50
000
ASUS43 KLOT 142300
RWRIL

ILLINOIS REGIONAL WEATHER ROUNDUP
NATIONAL WEATHER SERVICE CHICAGO/ROMEOVILLE IL
600 PM CDT SUN SEP 14 2014

NOTE: "FAIR" INDICATES FEW OR NO CLOUDS BELOW 12,000 FEET WITH NO
SIGNIFICANT WEATHER AND/OR OBSTRUCTIONS TO VISIBILITY.

* THESE STATIONS ARE NOT UNDER NWS QUALITY CONTROL. THEY ALSO MAY NOT
  REPORT WEATHER SUCH AS PRECIPITATION OR FOG.

ILZ001-002-007-009-015-016-024-150000-
NORTHWEST ILLINOIS

CITY           SKY/WX    TMP DP  RH WIND       PRES   REMARKS
MOLINE         SUNNY     66  45  46 SW7       30.17S
STERLING*      SUNNY     66  45  45 W7        30.17S
$$

ILZ003-004-008-010-011-017-018-150000-
NORTH CENTRAL ILLINOIS

CITY           SKY/WX    TMP DP  RH WIND       PRES   REMARKS
ROCKFORD       MOSUNNY   64  44  48 SW8       30.17F
$$

ILZ005-006-012>014-019>023-150000-
NORTHEAST ILLINOIS

CITY           SKY/WX    TMP DP  RH WIND       PRES   REMARKS
CHICAGO-OHARE  MOSUNNY   64  42  44 SW8       30.18S
CHICAGO-MIDWAY MOSUNNY   66  44  45 W8        30.18F
AURORA         SUNNY     64  43  46 SW7       30.18F
WAUKEGAN       SUNNY     62  45  53 S10       30.16F
DUPAGE AIRPORT SUNNY     64  43  46 SW9       30.17F
WHEELING       SUNNY     65  43  44 S9        30.19S
NORTHERLY ISL    N/A     65  40  39 S5          N/A
$$

LMZ740>746-150000-
SOUTHERN LAKE MICHIGAN

STATION/POSITION SKY/WX   TEMP    WIND        PRES    VSBY  WAVE
                          AIR SEA DIR/SP/G                  HT/PER
                          (F)     (DEG/KT/KT) (MB)    (MI)  (FT/S)
SOUTHERN BUOY              59 65  190/ 12/ 14 1022.6F         2/ 4
WAUKEGAN HARBOR            64     230/ 10/ 13   N/A
HARRISON CRIB              64     210/  7/  9   N/A
BURNHAM HARBOR             65     180/  8/ 11   N/A
CALUMET HARBOR             65     210/  5/  9 1021.0F
MICHIGAN CITY              63     260/  7/  9   N/A
MICHIGAN CITY 6N           63 65  240/  6/  8   N/A           1
ST. JOSEPH                 62 67  200/  4/  8   N/A           1/ 3
$$

ILZ025>027-034>036-040-047-049-050-058-095>099-150000-
WEST-CENTRAL ILLINOIS

CITY           SKY/WX    TMP DP  RH WIND       PRES   REMARKS
QUINCY         SUNNY     67  45  45 S6        30.17F
$$

ILZ028>032-037-038-041>044-048-051>054-059>061-150000-
CENTRAL ILLINOIS

CITY           SKY/WX    TMP DP  RH WIND       PRES   REMARKS
DECATUR        SUNNY     69  41  36 SW3       30.20S
PEORIA         SUNNY     68  45  43 NW3       30.19F
SPRINGFIELD    SUNNY     70  43  37 CALM      30.19F
TAYLORVILLE    NOT AVBL
$$

ILZ033-039-045-046-055>057-062-063-150000-
EAST-CENTRAL ILLINOIS

CITY           SKY/WX    TMP DP  RH WIND       PRES   REMARKS
CHAMPAIGN      SUNNY     67  43  41 S3        30.20F
MATTOON        SUNNY     66  46  48 SW5       30.20S
$$

ILZ079-100>102-150000-
SOUTHWEST ILLINOIS

CITY           SKY/WX    TMP DP  RH WIND       PRES   REMARKS
CAHOKIA*       SUNNY     71  47  42 SE3       30.19F
$$

ILZ064>066-069>071-074>076-080>082-084>086-088>090-092>094-150000-
SOUTH-CENTRAL ILLINOIS

CITY           SKY/WX    TMP DP  RH WIND       PRES   REMARKS
CARBONDALE     SUNNY     71  46  40 CALM      30.20S
MARION         SUNNY     70  48  46 SW6       30.20S
MT. VERNON     SUNNY     66  48  52 CALM      30.22R
$$

ILZ067-068-072-073-078-083-087-091-150000-
SOUTHEAST ILLINOIS

CITY           SKY/WX    TMP DP  RH WIND       PRES   REMARKS
LAWRENCEVILLE  SUNNY     69  47  45 NW3       30.20S
FLORA*         SUNNY     69  45  41 CALM      30.21S
$$

ABBREVIATIONS USED IN REMARKS
   TC - TEMPERATURE IN CELSIUS
  WCI - WIND CHILL INDEX
   HX - HEAT INDEX
  VSB - VISIBILITY
$$



USA.gov is the U.S. government's official web portal to all federal, state and local government web resources and services.